Monterey, CA

9:02 AM PDT on March 26, 2017 (GMT -0700)
Monterey Peninsula

Weather History for KMRY - January, 2014

Change the Weather History Date:

Tuesday, January 7, 2014

  Actual Average Record
Temperature  
Mean Temperature 54 °F 51 °F  
Max Temperature 64 °F 60 °F 78 °F (2015)
Min Temperature 44 °F 42 °F 37 °F (2000)
Degree Days  
Heating Degree Days 11    
Month to date heating degree days 79  
Since 1 July heating degree days 1294  
Cooling Degree Days 0    
Month to date cooling degree days 0  
Year to date cooling degree days 0  
Growing Degree Days 4 (Base 50)    
Moisture  
Dew Point 46 °F    
Average Humidity 63    
Maximum Humidity 100    
Minimum Humidity 26    
Precipitation  
Precipitation 0.00 in - 0.76 in (2017)
Month to date precipitation 0.00  
Year to date precipitation 0.00  
Since 1 July precipitation 1.28  
Sea Level Pressure  
Sea Level Pressure 30.20 in    
Wind  
Wind Speed 3 mph (WSW)    
Max Wind Speed 12 mph    
Max Gust Speed 16 mph    
Visibility 8 miles    
Events Fog    
T = Trace of Precipitation, MM = Missing Value Source: NWS Daily Summary

Daily Weather History Graph

Daily Weather History Graph

Search for Another Location

Airport or City:

Trip Planner

Search our weather history database for the weather conditions in past years. The results will help you decide how hot, cold, wet, or windy it might be!

Date:

Astronomy

Jan. 07, 2014 Rise Set
Actual Time 7:19 AM PST 5:07 PM PST
Civil Twilight 6:51 AM PST 5:36 PM PST
Nautical Twilight 6:19 AM PST 6:08 PM PST
Astronomical Twilight 5:48 AM PST 6:39 PM PST
Moon 11:23 AM PST (1/7) No Moon Set
Length of Visible Light 10h 44m
Length of Day
9h 47m
Waxing Crescent, 46% of the Moon is Illuminated
Jan 7
Waxing Crescent
Jan 7
First Quarter
Jan 15
Full
Jan 23
Last Quarter
Jan 30
New

Hourly Weather History & Observations

Time (PST) Temp. Windchill Dew Point Humidity Pressure Visibility Wind Dir Wind Speed Gust Speed Precip Events Conditions
12:54 AM 51.1 °F - 48.0 °F 89% 30.20 in 7.0 mi Calm Calm - N/A   Clear
1:54 AM 50.0 °F - 46.9 °F 89% 30.23 in 10.0 mi SW 3.5 mph - N/A   Clear
2:11 AM 48.2 °F - 46.4 °F 93% 30.19 in 9.0 mi Calm Calm - N/A   Scattered Clouds
2:20 AM 50.0 °F - 46.4 °F 87% 30.19 in 9.0 mi Calm Calm - N/A   Mostly Cloudy
2:50 AM 50.0 °F - 46.4 °F 87% 30.20 in 9.0 mi East 3.5 mph - N/A   Overcast
2:54 AM 48.9 °F - 45.0 °F 86% 30.23 in 10.0 mi East 3.5 mph - N/A   Overcast
3:33 AM 48.2 °F - 44.6 °F 87% 30.18 in 10.0 mi Calm Calm - N/A   Overcast
3:51 AM 48.2 °F - 44.6 °F 87% 30.18 in 10.0 mi ESE 4.6 mph - N/A   Scattered Clouds
3:54 AM 50.0 °F - 45.0 °F 83% 30.22 in 9.0 mi Calm Calm - N/A   Partly Cloudy
4:54 AM 46.9 °F - 44.1 °F 90% 30.19 in 10.0 mi East 4.6 mph - N/A   Clear
5:54 AM 46.9 °F - 44.1 °F 90% 30.20 in 8.0 mi Calm Calm - N/A   Scattered Clouds
6:05 AM 48.2 °F - 44.6 °F 87% 30.16 in 8.0 mi Calm Calm - N/A   Mostly Cloudy
6:17 AM 46.4 °F - 42.8 °F 87% 30.16 in 1.0 mi Calm Calm - N/A   Haze
6:25 AM 46.4 °F - 42.8 °F 87% 30.16 in 0.5 mi Calm Calm - N/A   Haze
6:54 AM 48.9 °F - 48.0 °F 97% 30.21 in 0.2 mi Calm Calm - N/A Fog Fog
7:25 AM 46.4 °F - 44.6 °F 93% 30.16 in 1.0 mi Calm Calm - N/A   Mist
7:31 AM 44.6 °F 42.2 °F 42.8 °F 93% 30.16 in 9.0 mi ENE 4.6 mph - N/A   Scattered Clouds
7:54 AM 46.0 °F - 45.0 °F 96% 30.21 in 6.0 mi Calm Calm - N/A   Clear
8:54 AM 50.0 °F - 43.0 °F 77% 30.22 in 10.0 mi East 3.5 mph - N/A   Clear
9:54 AM 55.9 °F - 44.1 °F 64% 30.22 in 10.0 mi Calm Calm - N/A   Clear
10:54 AM 55.0 °F - 48.0 °F 77% 30.23 in 7.0 mi West 5.8 mph - N/A   Clear
11:35 AM 53.6 °F - 48.2 °F 82% 30.19 in 4.0 mi West 6.9 mph - N/A   Haze
11:54 AM 54.0 °F - 48.9 °F 83% 30.24 in 5.0 mi WNW 8.1 mph - N/A   Haze
12:54 PM 57.9 °F - 46.9 °F 67% 30.20 in 9.0 mi Calm Calm - N/A   Partly Cloudy
1:54 PM 61.0 °F - 42.1 °F 50% 30.18 in 10.0 mi Calm Calm - N/A   Scattered Clouds
2:54 PM 64.0 °F - 28.0 °F 26% 30.17 in 10.0 mi WSW 5.8 mph - N/A   Clear
3:54 PM 60.1 °F - 46.0 °F 60% 30.18 in 9.0 mi NW 3.5 mph - N/A   Clear
4:54 PM 57.0 °F - 44.1 °F 62% 30.20 in 10.0 mi West 4.6 mph - N/A   Mostly Cloudy
5:10 PM 57.2 °F - 41.0 °F 55% 30.16 in 10.0 mi Calm Calm - N/A   Overcast
5:54 PM 57.9 °F - 48.9 °F 72% 30.19 in 10.0 mi SW 5.8 mph - N/A   Overcast
6:54 PM 57.0 °F - 50.0 °F 77% 30.20 in 10.0 mi Calm Calm - N/A   Overcast
7:54 PM 57.0 °F - 48.9 °F 74% 30.21 in 10.0 mi SSE 3.5 mph - N/A   Overcast
8:54 PM 57.0 °F - 52.0 °F 83% 30.23 in 10.0 mi WSW 4.6 mph - N/A   Overcast
9:54 PM 55.9 °F - 52.0 °F 87% 30.25 in 10.0 mi West 5.8 mph - N/A   Overcast
10:54 PM 55.9 °F - 52.0 °F 87% 30.25 in 10.0 mi West 3.5 mph - N/A   Overcast
11:54 PM 55.0 °F - 51.1 °F 86% 30.25 in 10.0 mi West 5.8 mph - N/A   Overcast